Location: Franzen
(48.6167°N, 15.3833°E)
Time: 13:47:20
(UTC+00:00)

Transit 2A Rocket - Pass Details

Date: 02 August 2021
Orbit: 586 x 917 km, 66.7° (Epoch: 27 September)

Event Time Altitude Azimuth Distance (km) Brightness Sun altitude
Rises 20:03:55 0° 327° (NNW) 3,209 10.1 -12.6°
Reaches altitude 10° 20:06:23 10° 335° (NNW) 2,335 8.8 -12.9°
Maximum altitude 20:11:26 38° 44° (NE) 1,235 6.1 -13.4°
Enters shadow 20:15:49 15° 107° (ESE) 2,173 6.8 -13.9°
